Regional Weather Roundup
Issued by NWS

Home | Current Version | Previous Version | Text Only | Print | Product List | Glossary On
Versions: 1 2 3 4 5 6 7 8 9 10 11 12 13 14 15 16 17 18 19 20 21 22 23 24 25 26 27 28 29 30 31 32 33 34 35 36 37 38 39 40 41 42 43 44 45 46 47 48 49 50
000
ASUS42 KFFC 200803
RWRGA
WEATHER ROUNDUP FOR GEORGIA
NATIONAL WEATHER SERVICE PEACHTREE CITY GA
300 AM EST SAT DEC 20 2014

NOTE: "FAIR" INDICATES FEW OR NO CLOUDS BELOW 12,000 FEET WITH NO
SIGNIFICANT WEATHER AND/OR OBSTRUCTIONS TO VISIBILITY.

* = USE WITH CAUTION. THE STATIONS MARKED WITH AN ASTERISK MAY NOT
REPORT WEATHER SUCH AS PRECIPITATION, FOG, OR THUNDER AND ARE NOT
QUALITY CONTROLLED BY NWS.

THE REMARK "TC" DENOTES TEMPERATURE READING IN DEGREES CELSIUS.

GAZ001>058-200900-
NORTH GEORGIA

CITY           SKY/WX    TMP DP  RH WIND       PRES   REMARKS
ATLANTA        LGT RAIN  42  39  89 CALM      30.13R
ATHENS         LGT RAIN  46  41  82 CALM      30.14S
CHAMBLEE       LGT RAIN  40  38  93 N6        30.13S FOG
PEACHTREE CITY LGT RAIN  42  40  92 CALM      30.15R FOG
ROME           LGT RAIN  40  38  93 NW6       30.16R
WEST ATLANTA   LGT RAIN  41  38  89 CALM      30.14R
GAINESVILLE    LGT RAIN  42  39  89 N3        30.15S
CARTERSVILLE   LGT RAIN  40  37  89 CALM      30.15S


CITY           SKY/WX    TMP DP  RH WIND       PRES   REMARKS
DALTON*        CLOUDY    37  36  93 CALM      30.16S
MARIETTA       LGT RAIN  40  38  95 N5        30.13S
$$

GAZ059>098-102>109-200900-
CENTRAL GEORGIA

CITY           SKY/WX    TMP DP  RH WIND       PRES   REMARKS
AUGUSTA-BUSH   LGT RAIN  48  46  93 N3        30.14F
AUGUSTA-DANIEL LGT RAIN  51  47  86 N5        30.14F
COLUMBUS       LGT RAIN  45  43  93 CALM      30.13F
MACON          LGT RAIN  46  45  96 CALM      30.14F
ROBINS AFB     LGT RAIN  47  45  92 VRB3      30.14S


CITY           SKY/WX    TMP DP  RH WIND       PRES   REMARKS
LAGRANGE*      LGT RAIN  46  44  95 CALM      30.14S
SYLVANIA*      LGT RAIN  49  49 100 CALM      30.14F
MILLEDGEVILLE* LGT RAIN  46  46 100 CALM      30.14S
$$

GAZ099>101-110>166-200900-
SOUTH GEORGIA

CITY           SKY/WX    TMP DP  RH WIND       PRES   REMARKS
SAVANNAH       CLOUDY    52  49  89 NE5       30.13F
VALDOSTA       LGT RAIN  50  48  93 NE3       30.11F
ALMA           LGT RAIN  50  49  96 NW3       30.13R FOG
ST SIMONS      LGT RAIN  54  51  90 N3        30.12F
FT STEWART     CLOUDY    50  48  94 CALM      30.11S
ALBANY         CLOUDY    50  47  89 NE3       30.14S
HUNTER AFB     CLOUDY    52  52 100 E2        30.10F
MOODY AFB      CLOUDY    50  47  92 N3        30.11F
BRUNSWICK      CLOUDY    54  50  87 CALM      30.13F


CITY           SKY/WX    TMP DP  RH WIND       PRES   REMARKS
BAINBRIDGE*    CLOUDY    54  52  94 CALM      30.12R
MOULTRIE*      CLOUDY    50  50 100 N3        30.12S
VIDALIA*       LGT RAIN  50  46  87 CALM      30.15R
WAYCROSS*      RAIN      54  52  94 CALM      30.12S
DOUGLAS*       LGT RAIN  52  50  93 CALM      30.15S
$$



USA.gov is the U.S. government's official web portal to all federal, state and local government web resources and services.